DW6610 Weather Reports


time (UTC)temp
F
wind
direction
speed
knots
gust
knots
rain 1hr
in
rain 24hr
in
rain mn
in
humidity
%
barometer
mb
20260902144051 93 112 0.0 1.7 0.00 0.00 0.00 68 1019.7
20260902143551 92 113 0.0 1.7 0.00 0.00 0.00 70 1019.7
20260902143105 92 164 0.9 1.7 0.00 0.00 0.00 68 1019.7
20260902142552 92 0 0.0 1.7 0.00 0.00 0.00 70 1019.7
20260902142053 92 92 0.0 1.7 0.00 0.00 0.00 69 1019.7
20260902141604 91 70 0.0 0.9 0.00 0.00 0.00 70 1019.7
20260902141052 90 115 0.0 2.6 0.00 0.00 0.00 71 1019.7
20260902140552 90 107 0.0 2.6 0.00 0.00 0.00 72 1019.7
20260902140108 89 92 0.0 1.7 0.00 0.00 0.00 72 1019.7
20260902135551 89 73 0.0 1.7 0.00 0.00 0.00 74 1019.8
20260902135051 88 86 0.0 1.7 0.00 0.00 0.00 73 1019.8
20260902134604 88 0 0.0 1.7 0.00 0.00 0.00 74 1019.8
20260902134051 87 0 0.0 1.7 0.00 0.00 0.00 74 1019.7
20260902133552 86 0 0.0 1.7 0.00 0.00 0.00 77 1019.8
20260902133105 85 0 0.0 1.7 0.00 0.00 0.00 79 1019.7
20260902132552 83 0 0.0 1.7 0.00 0.00 0.00 79 1019.7
20260902132051 82 63 0.9 1.7 0.00 0.00 0.00 81 1019.7
20260902131617 81 32 0.0 1.7 0.00 0.00 0.00 83 1019.7
20260902131053 80 70 0.0 1.7 0.00 0.00 0.00 86 1019.6
20260902130552 79 70 0.0 0.9 0.00 0.00 0.00 88 1019.7
20260902130108 78 0 0.0 0.9 0.00 0.00 0.00 89 1019.6
20260902125555 77 0 0.0 0.9 0.00 0.00 0.00 90 1019.7
20260902125052 76 0 0.0 0.9 0.00 0.00 0.00 91 1019.6
20260902124606 75 79 0.0 0.9 0.00 0.00 0.00 92 1019.5
20260902124051 75 0 0.0 0.9 0.00 0.00 0.00 92 1019.5
20260902123551 74 0 0.0 0.0 0.00 0.00 0.00 93 1019.5
20260902123107 74 0 0.0 0.0 0.00 0.00 0.00 93 1019.4
20260902122552 74 0 0.0 0.0 0.00 0.00 0.00 94 1019.4
20260902122051 74 0 0.0 0.0 0.00 0.00 0.00 94 1019.4
20260902121609 73 0 0.0 0.0 0.00 0.00 0.00 95 1019.4
20260902121052 73 0 0.0 0.0 0.00 0.00 0.00 95 1019.3
20260902120554 73 0 0.0 0.0 0.00 0.00 0.00 95 1019.1
20260902120104 73 0 0.0 0.0 0.00 0.00 0.00 96 1019.0
20260902115552 73 0 0.0 0.9 0.00 0.00 0.00 96 1018.9
20260902115052 72 0 0.0 0.9 0.00 0.00 0.00 96 1018.9
20260902114601 72 0 0.0 0.9 0.00 0.00 0.00 96 1019.0
20260902114052 72 0 0.0 0.0 0.00 0.00 0.00 97 1018.9
20260902113554 72 0 0.0 0.0 0.00 0.00 0.00 97 1018.9
20260902113107 72 0 0.0 0.0 0.00 0.00 0.00 96 1018.8
20260902112551 72 0 0.0 0.0 0.00 0.00 0.00 96 1018.8
20260902112051 72 0 0.0 0.0 0.00 0.00 0.00 96 1018.8
20260902111606 72 0 0.0 0.0 0.00 0.00 0.00 97 1018.7
20260902111052 72 0 0.0 0.0 0.00 0.00 0.00 97 1018.7
20260902110552 72 0 0.0 0.0 0.00 0.00 0.00 96 1018.5
20260902110059 73 0 0.0 0.0 0.00 0.00 0.00 96 1018.4
20260902105551 73 0 0.0 0.0 0.00 0.00 0.00 96 1018.4
20260902105051 73 0 0.0 0.0 0.00 0.00 0.00 96 1018.4
20260902104613 73 0 0.0 0.0 0.00 0.00 0.00 96 1018.4
20260902104050 73 0 0.0 0.0 0.00 0.00 0.00 95 1018.5
20260902103551 73 0 0.0 0.0 0.00 0.00 0.00 95 1018.4
20260902103107 73 0 0.0 0.0 0.00 0.00 0.00 95 1018.4
20260902102553 73 0 0.0 0.0 0.00 0.00 0.00 95 1018.3
20260902102056 73 0 0.0 0.0 0.00 0.00 0.00 95 1018.2
20260902101601 73 0 0.0 0.0 0.00 0.00 0.00 95 1018.1
20260902101052 73 0 0.0 0.0 0.00 0.00 0.00 96 1018.0
20260902100552 73 0 0.0 0.0 0.00 0.00 0.00 96 1018.0
20260902100101 73 0 0.0 0.0 0.00 0.00 0.00 96 1018.0
20260902095552 73 0 0.0 0.0 0.00 0.00 0.00 96 1017.9
20260902095051 73 0 0.0 0.0 0.00 0.00 0.00 96 1017.9
20260902094557 73 0 0.0 0.0 0.00 0.00 0.00 96 1017.8
20260902094051 73 0 0.0 0.0 0.00 0.00 0.00 96 1017.8
20260902093551 73 0 0.0 0.0 0.00 0.00 0.00 96 1017.8
20260902093101 73 0 0.0 0.0 0.00 0.00 0.00 96 1017.8
20260902092549 73 0 0.0 0.0 0.00 0.00 0.00 95 1017.9
20260902092053 74 0 0.0 0.0 0.00 0.00 0.00 95 1017.7
20260902091611 74 0 0.0 0.0 0.00 0.00 0.00 95 1017.7
20260902091052 74 0 0.0 0.0 0.00 0.00 0.00 95 1017.7
20260902090554 74 0 0.0 0.0 0.00 0.00 0.00 94 1017.7
20260902090104 74 0 0.0 0.0 0.00 0.00 0.00 94 1017.7
20260902085551 74 0 0.0 0.0 0.00 0.00 0.00 94 1017.6
20260902085051 74 0 0.0 0.0 0.00 0.00 0.00 94 1017.7
20260902084609 74 0 0.0 0.0 0.00 0.00 0.00 94 1017.6
20260902084051 74 0 0.0 0.0 0.00 0.00 0.00 94 1017.7
20260902083551 74 0 0.0 0.9 0.00 0.00 0.00 93 1017.7
20260902083117 75 0 0.0 0.9 0.00 0.00 0.00 93 1017.7
20260902082552 75 0 0.0 0.9 0.00 0.00 0.00 93 1017.7
20260902082052 75 0 0.0 0.9 0.00 0.00 0.00 93 1017.7
20260902081558 75 0 0.0 0.9 0.00 0.00 0.00 93 1017.7
20260902081052 75 0 0.0 0.9 0.00 0.00 0.00 92 1017.6
20260902080554 75 0 0.0 0.9 0.00 0.00 0.00 91 1017.6
20260902075554 76 0 0.0 0.0 0.00 0.00 0.00 90 1017.7
20260902075051 76 0 0.0 0.0 0.00 0.00 0.00 90 1017.8
20260902074623 76 0 0.0 0.0 0.00 0.00 0.00 89 1017.8
20260902074052 76 0 0.0 0.9 0.00 0.00 0.00 89 1017.8
20260902073551 76 0 0.0 0.9 0.00 0.00 0.00 89 1017.9
20260902073103 76 0 0.0 0.0 0.00 0.00 0.00 89 1017.8
20260902072551 76 0 0.0 0.9 0.00 0.00 0.00 88 1017.8
20260902072052 76 0 0.0 0.9 0.00 0.00 0.00 88 1017.8
20260902071604 76 79 0.0 0.9 0.00 0.00 0.00 89 1017.8
20260902071056 76 0 0.0 0.9 0.00 0.00 0.00 89 1017.7
20260902070551 76 79 0.0 0.9 0.00 0.00 0.00 89 1017.8
20260902070105 77 79 0.0 0.0 0.00 0.00 0.00 89 1017.8
20260902065551 77 0 0.0 0.9 0.00 0.00 0.00 88 1017.7
20260902065051 77 0 0.0 1.7 0.00 0.00 0.00 88 1017.9
20260902064601 77 78 0.0 1.7 0.00 0.00 0.00 88 1017.8
20260902064052 77 0 0.0 0.9 0.00 0.00 0.00 88 1017.8
20260902063552 76 94 0.0 0.9 0.00 0.00 0.00 89 1017.9
20260902063102 76 0 0.0 0.9 0.00 0.00 0.00 90 1017.8
20260902062552 76 0 0.0 0.9 0.00 0.00 0.00 91 1017.8
20260902062052 76 0 0.0 0.9 0.00 0.00 0.00 91 1017.8
20260902061600 76 0 0.0 0.0 0.00 0.00 0.00 92 1017.8
20260902061051 77 0 0.0 0.9 0.00 0.00 0.00 92 1017.8
20260902060553 77 0 0.0 0.9 0.00 0.00 0.00 92 1017.9
20260902060108 76 0 0.0 0.9 0.00 0.00 0.00 92 1017.9
20260902055552 76 0 0.0 0.9 0.00 0.00 0.00 92 1017.8
20260902055052 76 0 0.0 0.0 0.00 0.00 0.00 91 1017.8
20260902054610 76 0 0.0 0.0 0.00 0.00 0.00 92 1018.0
20260902054051 77 0 0.0 0.0 0.00 0.00 0.00 92 1017.8
20260902053552 77 0 0.0 0.0 0.00 0.00 0.00 92 1017.8
20260902053117 77 0 0.0 0.0 0.00 0.00 0.00 92 1017.8
20260902052551 77 0 0.0 0.0 0.00 0.00 0.00 92 1017.8
20260902052051 77 0 0.0 0.0 0.00 0.00 0.00 91 1017.7
20260902051619 77 0 0.0 0.9 0.00 0.00 0.00 91 1017.8
20260902051051 78 0 0.0 0.9 0.00 0.00 0.00 91 1017.6
20260902050551 78 0 0.0 0.0 0.00 0.00 0.00 90 1017.6
20260902050111 78 0 0.0 0.0 0.00 0.00 0.00 90 1017.6
20260902045552 78 0 0.0 0.0 0.00 0.00 0.00 90 1017.5
20260902045052 78 0 0.0 0.0 0.00 0.00 0.00 89 1017.6
20260902044600 78 0 0.0 0.0 0.00 0.00 0.00 88 1017.5
20260902044052 78 0 0.0 0.0 0.00 0.00 0.00 87 1017.4
20260902043551 78 0 0.0 0.0 0.00 0.00 0.00 88 1017.4
20260902043121 78 0 0.0 0.0 0.00 0.00 0.00 87 1017.5
20260902042551 79 0 0.0 0.0 0.00 0.00 0.00 87 1017.5
20260902042052 79 0 0.0 0.0 0.00 0.00 0.00 86 1017.5
20260902041604 79 0 0.0 0.9 0.00 0.00 0.00 86 1017.4
20260902041051 79 0 0.0 0.9 0.00 0.00 0.00 85 1017.4
20260902040551 79 0 0.0 0.0 0.00 0.00 0.00 85 1017.4
20260902040110 79 0 0.0 0.9 0.00 0.00 0.00 85 1017.4
20260902035552 80 0 0.0 0.9 0.00 0.00 0.00 85 1017.5
20260902035052 79 0 0.0 0.9 0.00 0.00 0.00 86 1017.5
20260902034606 79 96 0.0 0.9 0.00 0.00 0.00 86 1017.5
20260902034052 79 0 0.0 0.9 0.00 0.00 0.00 87 1017.5
20260902033551 80 0 0.0 0.9 0.00 0.00 0.00 87 1017.5
20260902033100 80 0 0.0 0.9 0.00 0.00 0.00 87 1017.5
20260902032552 80 0 0.0 0.9 0.00 0.00 0.00 87 1017.6
20260902032051 80 0 0.0 0.9 0.00 0.00 0.00 87 1017.5
20260902031559 80 0 0.0 0.0 0.00 0.00 0.00 87 1017.5
20260902031051 81 0 0.0 0.9 0.00 0.00 0.00 86 1017.5
20260902030553 81 0 0.0 0.9 0.00 0.00 0.00 84 1017.5
20260902030110 81 0 0.0 0.9 0.00 0.00 0.00 83 1017.4
20260902025551 81 0 0.0 0.9 0.00 0.00 0.00 82 1017.4
20260902025052 81 0 0.0 0.9 0.00 0.00 0.00 83 1017.4
20260902024556 81 0 0.0 0.0 0.00 0.00 0.00 82 1017.3
20260902024051 81 0 0.0 0.0 0.00 0.00 0.00 82 1017.3
20260902023553 81 0 0.0 0.0 0.00 0.00 0.00 81 1017.1
20260902023111 82 0 0.0 0.9 0.00 0.00 0.00 81 1017.2
20260902022554 82 0 0.0 0.9 0.00 0.00 0.00 80 1017.2
20260902022052 82 0 0.0 0.9 0.00 0.00 0.00 80 1017.1
20260902021604 82 0 0.0 0.0 0.00 0.00 0.00 80 1017.1
20260902021053 83 0 0.0 0.0 0.00 0.00 0.00 81 1017.1
20260902020552 83 0 0.0 0.0 0.00 0.00 0.00 80 1017.0
20260902020100 83 0 0.0 0.0 0.00 0.00 0.00 78 1017.1
20260902015551 83 0 0.0 0.0 0.00 0.00 0.00 78 1017.0
20260902015051 83 0 0.0 0.0 0.00 0.00 0.00 78 1017.0
20260902014601 83 0 0.0 0.0 0.00 0.00 0.00 77 1016.9
20260902014051 83 0 0.0 0.0 0.00 0.00 0.00 75 1016.8
20260902013552 84 0 0.0 0.0 0.00 0.00 0.00 75 1016.8
20260902013102 84 0 0.0 0.0 0.00 0.00 0.00 75 1016.8
20260902012552 84 0 0.0 0.0 0.00 0.00 0.00 75 1016.8
20260902012051 85 0 0.0 0.0 0.00 0.00 0.00 76 1016.7
20260902011638 85 0 0.0 0.0 0.00 0.00 0.00 75 1016.7
20260902011052 86 0 0.0 0.0 0.00 0.00 0.00 75 1016.7
20260902010552 86 0 0.0 0.0 0.00 0.00 0.00 73 1016.7
20260902010101 86 0 0.0 0.0 0.00 0.00 0.00 71 1016.7
20260902005552 87 0 0.0 0.0 0.00 0.00 0.00 70 1016.6
20260902005051 87 0 0.0 0.0 0.00 0.00 0.00 68 1016.6
20260902004609 88 0 0.0 0.0 0.00 0.00 0.00 66 1016.5
20260902004054 89 0 0.0 0.0 0.00 0.00 0.00 65 1016.5
20260902003553 89 0 0.0 0.9 0.00 0.00 0.00 64 1016.4
20260902003111 90 0 0.0 0.9 0.00 0.00 0.00 62 1016.4
20260902002551 91 0 0.0 0.9 0.00 0.00 0.00 61 1016.4
20260902002051 91 0 0.0 0.9 0.00 0.00 0.00 60 1016.4
20260902001601 92 0 0.0 0.9 0.00 0.00 0.00 60 1016.5
20260902001051 92 0 0.0 2.6 0.00 0.00 0.00 59 1016.5
20260902000551 92 98 0.0 2.6 0.00 0.00 0.00 58 1016.5
20260902000106 93 0 0.0 2.6 0.00 0.00 0.00 57 1016.5
20260901235552 93 293 0.0 2.6 0.00 0.00 0.00 57 1016.5
20260901235051 93 293 0.9 2.6 0.00 0.00 0.00 56 1016.5
20260901234610 94 98 0.0 2.6 0.00 0.00 0.00 56 1016.6
20260901234052 94 96 0.9 2.6 0.00 0.00 0.00 55 1016.7
20260901233552 94 0 0.0 1.7 0.00 0.00 0.00 55 1016.7
20260901233106 95 103 0.0 2.6 0.00 0.00 0.00 54 1016.8
20260901232552 95 83 0.9 2.6 0.00 0.00 0.00 54 1016.8
20260901232053 95 65 0.9 2.6 0.00 0.00 0.00 54 1016.8
20260901231615 95 69 0.0 1.7 0.00 0.00 0.00 54 1016.8
20260901231051 94 57 0.0 1.7 0.00 0.00 0.00 54 1016.8
20260901230554 94 153 0.0 2.6 0.00 0.00 0.00 54 1017.0
20260901230113 95 83 0.0 5.2 0.00 0.00 0.00 53 1016.8
20260901225552 95 181 0.9 5.2 0.00 0.00 0.00 52 1017.0
20260901225052 96 61 1.7 5.2 0.00 0.00 0.00 51 1016.9
20260901224559 97 279 0.9 3.5 0.00 0.00 0.00 50 1016.9
20260901224053 97 71 0.9 3.5 0.00 0.00 0.00 49 1016.8
20260901223554 97 51 0.9 3.5 0.00 0.00 0.00 49 1016.9
20260901223103 97 79 0.9 3.5 0.00 0.00 0.00 49 1016.8
20260901222552 97 44 0.9 3.5 0.00 0.00 0.00 51 1016.8
20260901222051 97 309 0.9 4.3 0.00 0.00 0.00 51 1016.9
20260901221625 97 72 1.7 4.3 0.00 0.00 0.00 51 1016.8
20260901221051 96 91 0.9 3.5 0.00 0.00 0.00 52 1016.8
20260901220553 95 103 0.0 1.7 0.00 0.00 0.00 54 1016.8
20260901220123 95 0 0.9 1.7 0.00 0.00 0.00 54 1016.8
20260901215552 95 0 0.0 2.6 0.00 0.00 0.00 54 1016.8
20260901215052 96 67 0.0 2.6 0.00 0.00 0.00 52 1016.8
20260901214603 96 87 0.0 2.6 0.00 0.00 0.00 52 1016.8
20260901214052 96 131 0.0 3.5 0.00 0.00 0.00 51 1016.8
20260901213552 97 306 0.9 3.5 0.00 0.00 0.00 49 1016.9
20260901213110 98 86 0.9 3.5 0.00 0.00 0.00 48 1016.9
20260901212551 98 53 0.0 2.6 0.00 0.00 0.00 47 1017.0
20260901212052 99 134 0.9 7.0 0.00 0.00 0.00 46 1016.9
20260901211601 99 104 1.7 7.0 0.00 0.00 0.00 47 1016.9
20260901211051 100 82 1.7 4.3 0.00 0.00 0.00 45 1017.0
20260901210551 100 79 0.9 4.3 0.00 0.00 0.00 47 1017.0
20260901210119 100 61 0.9 4.3 0.00 0.00 0.00 46 1017.1
20260901205552 100 145 0.9 4.3 0.00 0.00 0.00 46 1017.1
20260901205051 101 81 0.9 2.6 0.00 0.00 0.00 46 1017.0
20260901204623 101 119 0.9 2.6 0.00 0.00 0.00 46 1017.1
20260901204052 101 202 0.9 5.2 0.00 0.00 0.00 48 1017.1
20260901203556 100 91 1.7 5.2 0.00 0.00 0.00 49 1017.2
20260901203104 101 84 1.7 4.3 0.00 0.00 0.00 48 1017.3
20260901202551 101 127 0.9 4.3 0.00 0.00 0.00 49 1017.2
20260901202055 101 120 1.7 5.2 0.00 0.00 0.00 49 1017.4
20260901201602 101 18 2.6 6.1 0.00 0.00 0.00 48 1017.4
20260901201052 101 23 0.9 6.1 0.00 0.00 0.00 50 1017.4
20260901200553 100 77 0.9 4.3 0.00 0.00 0.00 49 1017.4
20260901200122 99 278 1.7 3.5 0.00 0.00 0.00 50 1017.4
20260901195552 98 96 0.9 2.6 0.00 0.00 0.00 51 1017.5
20260901195052 98 277 0.0 1.7 0.00 0.00 0.00 50 1017.6
20260901194612 98 0 0.9 1.7 0.00 0.00 0.00 51 1017.5
20260901194054 97 134 0.0 2.6 0.00 0.00 0.00 52 1017.6
20260901193552 98 95 0.9 2.6 0.00 0.00 0.00 52 1017.6
20260901193103 99 139 0.0 1.7 0.00 0.00 0.00 49 1017.7
20260901192557 100 103 0.0 1.7 0.00 0.00 0.00 49 1017.8
20260901192052 101 312 0.9 3.5 0.00 0.00 0.00 47 1017.8
20260901191638 101 122 0.9 3.5 0.00 0.00 0.00 49 1017.9
20260901191054 100 93 0.9 3.5 0.00 0.00 0.00 50 1017.9
20260901190552 100 79 0.9 3.5 0.00 0.00 0.00 53 1018.0
20260901190108 100 88 1.7 5.2 0.00 0.00 0.00 48 1018.1
20260901185552 100 90 1.7 5.2 0.00 0.00 0.00 57 1018.2
20260901185051 100 18 0.9 3.5 0.00 0.00 0.00 50 1018.2
20260901184606 100 82 1.7 3.5 0.00 0.00 0.00 53 1018.3
20260901184051 100 138 0.0 4.3 0.00 0.00 0.00 51 1018.3
20260901183555 100 95 0.9 4.3 0.00 0.00 0.00 49 1018.4
20260901183102 100 100 1.7 4.3 0.00 0.00 0.00 48 1018.6
20260901182553 100 80 0.9 3.5 0.00 0.00 0.00 51 1018.6
20260901182052 100 98 0.9 4.3 0.00 0.00 0.00 52 1018.7
20260901181619 100 96 1.7 5.2 0.00 0.00 0.00 50 1018.6
20260901181053 99 106 0.9 5.2 0.00 0.00 0.00 54 1018.6
20260901180552 99 6 0.9 4.3 0.00 0.00 0.00 54 1018.8
20260901180103 99 100 1.7 5.2 0.00 0.00 0.00 54 1018.9
20260901175553 98 79 0.9 5.2 0.00 0.00 0.00 52 1018.9
20260901175051 98 155 1.7 5.2 0.00 0.00 0.00 53 1019.0
20260901174605 99 136 0.0 4.3 0.00 0.00 0.00 54 1019.0
20260901174052 98 44 0.9 4.3 0.00 0.00 0.00 53 1019.2
20260901173552 99 84 0.9 2.6 0.00 0.00 0.00 56 1019.3
20260901173118 98 149 0.9 2.6 0.00 0.00 0.00 53 1019.3
20260901172554 97 0 0.9 1.7 0.00 0.00 0.00 57 1019.4
20260901172052 97 104 0.9 3.5 0.00 0.00 0.00 55 1019.4
20260901171606 98 162 0.9 3.5 0.00 0.00 0.00 53 1019.5
20260901171052 98 127 0.9 3.5 0.00 0.00 0.00 55 1019.6
20260901170553 99 79 0.9 3.5 0.00 0.00 0.00 56 1019.6
20260901170104 98 110 0.9 3.5 0.00 0.00 0.00 57 1019.7
20260901165551 98 83 1.7 3.5 0.00 0.00 0.00 54 1019.8
20260901165052 98 123 0.9 3.5 0.00 0.00 0.00 56 1019.8
20260901164628 98 106 0.9 2.6 0.00 0.00 0.00 59 1019.9
20260901164053 97 65 0.9 5.2 0.00 0.00 0.00 62 1020.0
20260901163552 96 143 0.9 5.2 0.00 0.00 0.00 63 1020.0
20260901163104 96 105 1.7 5.2 0.00 0.00 0.00 61 1020.0
20260901162551 95 138 0.9 2.6 0.00 0.00 0.00 61 1020.0
20260901162052 95 155 0.9 2.6 0.00 0.00 0.00 61 1020.1
20260901161600 95 197 0.9 4.3 0.00 0.00 0.00 61 1020.1
20260901161052 95 156 1.7 4.3 0.00 0.00 0.00 63 1020.2
20260901160552 96 114 0.9 2.6 0.00 0.00 0.00 60 1020.2
20260901160117 96 120 0.9 2.6 0.00 0.00 0.00 62 1020.1
20260901155551 96 73 0.9 5.2 0.00 0.00 0.00 63 1020.2
20260901155051 96 82 0.9 5.2 0.00 0.00 0.00 64 1020.1
20260901154605 95 122 0.0 3.5 0.00 0.00 0.00 64 1020.2
20260901154052 95 96 0.9 3.5 0.00 0.00 0.00 63 1020.3
20260901153552 94 41 0.0 4.3 0.00 0.00 0.00 67 1020.4
20260901153127 94 122 0.9 4.3 0.00 0.00 0.00 65 1020.3
20260901152551 93 113 0.9 4.3 0.00 0.00 0.00 67 1020.3
20260901152054 93 120 1.7 4.3 0.00 0.00 0.00 65 1020.3
20260901151601 93 108 0.9 3.5 0.00 0.00 0.00 70 1020.3
20260901151052 92 0 1.7 3.5 0.00 0.00 0.00 70 1020.3
20260901150552 92 128 1.7 5.2 0.00 0.00 0.00 67 1020.3
20260901150116 92 81 2.6 5.2 0.00 0.00 0.00 69 1020.3
20260901145552 92 125 0.9 3.5 0.00 0.00 0.00 68 1020.4
20260901145051 92 88 0.9 3.5 0.00 0.00 0.00 71 1020.4
20260901144602 92 99 1.7 3.5 0.00 0.00 0.00 70 1020.3